Location: Jackson Park
(37.2862°N, 79.9123°W)
Time: 23:21:17
(UTC+00:00)

ISS - Pass Details

Date: 22 April 2026
Orbit: 414 x 424 km, 51.6° (Epoch: 15 May)

Event Time Altitude Azimuth Distance (km) Brightness Sun altitude
Exits shadow 09:41:46 - 291° (WNW) 1,592 -1.2 -10.9°
Reaches altitude 10° 09:42:08 10° 296° (WNW) 1,496 -1.3 -10.8°
Maximum altitude 09:44:18 16° 336° (NNW) 1,192 -1.5 -10.4°
Drops below altitude 10° 09:46:28 10° 16° (NNE) 1,504 -0.4 -10.0°
Sets 09:49:11 0° 39° (NE) 2,373 1.3 -9.5°
